When you browse on this site, cookies collect data to enhance your experience and personalize the content and advertising you see.
Visit our Privacy Policy to learn more. By continuing to use the site, you agree to this use of cookies and data.
  • en France
  • Liste des pays
  • À 7 jours
  • Température de l'eau
  • Carte satellitaire
  • Carte météo
  • Widgets météo
  • user-avatar
    Se connecter

    Météo par heure à Haskovo

    Ce jour, 25 Mai, Samedi

    Heure Température Précipitation Vent Pression Humidité
    00:00 +14°C° 0 mm 2 m/s 737 mmHg 77%
    01:00 +13°C° 0 mm 2 m/s 737 mmHg 79%
    02:00 +13°C° 0 mm 1 m/s 737 mmHg 80%
    03:00 +12°C° 0 mm 1 m/s 737 mmHg 81%
    04:00 +12°C° 0 mm 2 m/s 737 mmHg 81%
    05:00 +12°C° 0 mm 2 m/s 738 mmHg 81%
    06:00 +14°C° 0 mm 2 m/s 738 mmHg 75%
    07:00 +16°C° 0 mm 2 m/s 738 mmHg 69%
    08:00 +18°C° 0 mm 3 m/s 738 mmHg 64%
    09:00 +19°C° 0 mm 3 m/s 738 mmHg 59%
    10:00 +21°C° 0 mm 3 m/s 739 mmHg 55%
    11:00 +22°C° 0 mm 3 m/s 739 mmHg 50%
    12:00 +24°C° 0 mm 3 m/s 739 mmHg 48%
    13:00 +25°C° 0 mm 3 m/s 739 mmHg 46%
    14:00 +25°C° 0 mm 3 m/s 739 mmHg 44%
    15:00 +25°C° 0 mm 3 m/s 739 mmHg 44%
    16:00 +25°C° 0 mm 2 m/s 739 mmHg 45%
    17:00 +25°C° 0 mm 2 m/s 739 mmHg 45%
    18:00 +23°C° 0 mm 1 m/s 739 mmHg 54%
    19:00 +21°C° 0 mm 1 m/s 739 mmHg 62%
    20:00 +19°C° 0 mm 1 m/s 739 mmHg 70%
    21:00 +18°C° 0 mm 1 m/s 739 mmHg 73%
    22:00 +16°C° 0 mm 1 m/s 740 mmHg 76%
    23:00 +16°C° 0 mm 1 m/s 740 mmHg 79%

    Demain, 26 Mai, Dimanche

    Heure Température Précipitation Vent Pression Humidité
    00:00 +15°C° 0 mm 1 m/s 740 mmHg 79%
    01:00 +15°C° 0 mm 1 m/s 740 mmHg 80%
    02:00 +14°C° 0 mm 1 m/s 740 mmHg 80%
    03:00 +14°C° 0 mm 1 m/s 740 mmHg 80%
    04:00 +14°C° 0 mm 1 m/s 741 mmHg 80%
    05:00 +13°C° 0 mm 1 m/s 741 mmHg 81%
    06:00 +15°C° 0 mm 1 m/s 741 mmHg 74%
    07:00 +19°C° 0 mm 1 m/s 741 mmHg 68%
    08:00 +21°C° 0 mm 1 m/s 741 mmHg 61%
    09:00 +22°C° 0 mm 1 m/s 742 mmHg 56%
    10:00 +24°C° 0 mm 1 m/s 742 mmHg 52%
    11:00 +26°C° 0 mm 1 m/s 742 mmHg 47%
    12:00 +27°C° 0 mm 1 m/s 742 mmHg 45%
    13:00 +27°C° 0 mm 2 m/s 742 mmHg 44%
    14:00 +28°C° 0 mm 2 m/s 742 mmHg 42%
    15:00 +28°C° 0 mm 2 m/s 742 mmHg 45%
    16:00 +28°C° 0 mm 3 m/s 741 mmHg 47%
    17:00 +28°C° 0 mm 3 m/s 741 mmHg 49%
    18:00 +26°C° 0 mm 3 m/s 741 mmHg 58%
    19:00 +24°C° 0 mm 2 m/s 741 mmHg 66%
    20:00 +21°C° 0 mm 2 m/s 741 mmHg 74%
    21:00 +20°C° 0 mm 2 m/s 741 mmHg 77%
    22:00 +19°C° 0 mm 2 m/s 742 mmHg 80%
    23:00 +19°C° 0 mm 1 m/s 742 mmHg 82%

    Après-demain, 27 Mai, Lundi

    Heure Température Précipitation Vent Pression Humidité
    00:00 +18°C° 0 mm 1 m/s 742 mmHg 83%
    01:00 +18°C° 0 mm 1 m/s 742 mmHg 85%
    02:00 +16°C° 0 mm 1 m/s 741 mmHg 86%
    03:00 +16°C° 0 mm 1 m/s 741 mmHg 86%
    04:00 +14°C° 0 mm 0 m/s 741 mmHg 87%
    05:00 +14°C° 0 mm 0 m/s 741 mmHg 87%
    06:00 +18°C° 0 mm 1 m/s 741 mmHg 80%
    07:00 +20°C° 0 mm 1 m/s 742 mmHg 73%
    08:00 +22°C° 0 mm 1 m/s 742 mmHg 66%
    09:00 +23°C° 0 mm 2 m/s 742 mmHg 60%
    10:00 +25°C° 0 mm 2 m/s 742 mmHg 55%
    11:00 +27°C° 0 mm 3 m/s 742 mmHg 49%
    12:00 +28°C° 0 mm 3 m/s 742 mmHg 47%
    13:00 +28°C° 0 mm 4 m/s 741 mmHg 45%
    14:00 +29°C° 0 mm 4 m/s 741 mmHg 42%
    15:00 +29°C° 0 mm 4 m/s 741 mmHg 43%
    16:00 +29°C° 0 mm 4 m/s 740 mmHg 45%
    17:00 +28°C° 0 mm 4 m/s 740 mmHg 46%
    18:00 +26°C° 0 mm 4 m/s 740 mmHg 54%
    19:00 +23°C° 0 mm 4 m/s 740 mmHg 61%
    20:00 +21°C° 0 mm 3 m/s 740 mmHg 68%
    21:00 +20°C° 0 mm 3 m/s 740 mmHg 73%
    22:00 +19°C° 0 mm 3 m/s 740 mmHg 78%
    23:00 +17°C° 0 mm 3 m/s 740 mmHg 83%

    28 Mai, Mardi

    Heure Température Précipitation Vent Pression Humidité
    00:00 +17°C° 0 mm 2 m/s 740 mmHg 84%
    01:00 +16°C° 0 mm 2 m/s 739 mmHg 85%
    02:00 +15°C° 0 mm 2 m/s 739 mmHg 86%
    03:00 +14°C° 0 mm 1 m/s 739 mmHg 86%
    04:00 +14°C° 0 mm 1 m/s 739 mmHg 86%
    05:00 +13°C° 0 mm 1 m/s 738 mmHg 86%
    06:00 +16°C° 0 mm 1 m/s 738 mmHg 78%
    07:00 +19°C° 0 mm 1 m/s 738 mmHg 71%
    08:00 +20°C° 0 mm 2 m/s 738 mmHg 63%
    09:00 +24°C° 0 mm 3 m/s 738 mmHg 57%
    10:00 +26°C° 0 mm 3 m/s 738 mmHg 51%
    11:00 +29°C° 0 mm 4 m/s 738 mmHg 45%
    12:00 +29°C° 0 mm 5 m/s 738 mmHg 41%
    13:00 +30°C° 0 mm 6 m/s 737 mmHg 38%
    14:00 +30°C° 0 mm 7 m/s 737 mmHg 34%
    15:00 +29°C° 0 mm 7 m/s 736 mmHg 37%
    16:00 +28°C° 0 mm 7 m/s 736 mmHg 39%
    17:00 +27°C° 0 mm 7 m/s 735 mmHg 41%
    18:00 +24°C° 0 mm 6 m/s 735 mmHg 47%
    19:00 +22°C° 0 mm 6 m/s 736 mmHg 54%
    20:00 +20°C° 0 mm 5 m/s 736 mmHg 61%
    21:00 +19°C° 0 mm 5 m/s 736 mmHg 64%
    22:00 +19°C° 0 mm 5 m/s 736 mmHg 67%
    23:00 +17°C° 0 mm 5 m/s 736 mmHg 70%

    29 Mai, Mercredi

    Heure Température Précipitation Vent Pression Humidité
    00:00 +18°C° 0 mm 4 m/s 736 mmHg 72%
    01:00 +17°C° 0 mm 3 m/s 736 mmHg 74%
    02:00 +17°C° 0 mm 3 m/s 736 mmHg 75%
    03:00 +16°C° 0 mm 2 m/s 736 mmHg 79%
    04:00 +16°C° 0 mm 2 m/s 736 mmHg 82%
    05:00 +15°C° 0 mm 1 m/s 737 mmHg 85%
    06:00 +18°C° 0 mm 1 m/s 737 mmHg 78%
    07:00 +20°C° 0 mm 1 m/s 737 mmHg 71%
    08:00 +22°C° 0 mm 1 m/s 738 mmHg 64%
    09:00 +24°C° 0 mm 1 m/s 738 mmHg 59%
    10:00 +26°C° 0 mm 2 m/s 738 mmHg 54%
    11:00 +27°C° 0 mm 2 m/s 738 mmHg 49%
    12:00 +28°C° 0 mm 3 m/s 738 mmHg 47%
    13:00 +29°C° 0 mm 3 m/s 738 mmHg 45%
    14:00 +30°C° 0 mm 3 m/s 738 mmHg 44%
    15:00 +30°C° 0 mm 4 m/s 738 mmHg 46%
    16:00 +29°C° 0 mm 4 m/s 738 mmHg 47%
    17:00 +29°C° 0 mm 4 m/s 737 mmHg 49%
    18:00 +27°C° 0 mm 3 m/s 738 mmHg 57%
    19:00 +25°C° 0 mm 3 m/s 738 mmHg 65%
    20:00 +22°C° 0 mm 3 m/s 738 mmHg 73%
    21:00 +21°C° 0 mm 2 m/s 738 mmHg 76%
    22:00 +20°C° 0 mm 2 m/s 739 mmHg 78%
    23:00 +19°C° 0 mm 2 m/s 739 mmHg 81%

    30 Mai, Jeudi

    Heure Température Précipitation Vent Pression Humidité
    00:00 +19°C° 0 mm 1 m/s 739 mmHg 81%
    01:00 +19°C° 0 mm 1 m/s 739 mmHg 81%
    02:00 +19°C° 0 mm 1 m/s 739 mmHg 81%
    03:00 +19°C° 0 mm 1 m/s 739 mmHg 81%
    04:00 +18°C° 0 mm 1 m/s 740 mmHg 81%
    05:00 +18°C° 0 mm 1 m/s 740 mmHg 82%
    06:00 +19°C° 0 mm 2 m/s 740 mmHg 74%
    07:00 +21°C° 0 mm 2 m/s 740 mmHg 67%
    08:00 +24°C° 0 mm 2 m/s 741 mmHg 60%
    09:00 +26°C° 0 mm 2 m/s 741 mmHg 55%
    10:00 +27°C° 0 mm 2 m/s 741 mmHg 50%
    11:00 +28°C° 0 mm 2 m/s 741 mmHg 46%
    12:00 +29°C° 0.6 mm 2 m/s 740 mmHg 46%
    13:00 +29°C° 0.6 mm 2 m/s 740 mmHg 46%
    14:00 +29°C° 0.6 mm 2 m/s 740 mmHg 47%
    15:00 +29°C° 0.4 mm 2 m/s 740 mmHg 50%
    16:00 +28°C° 0.4 mm 2 m/s 740 mmHg 53%
    17:00 +27°C° 0.4 mm 2 m/s 740 mmHg 55%
    18:00 +26°C° 0.8 mm 2 m/s 740 mmHg 63%
    19:00 +24°C° 0.8 mm 2 m/s 740 mmHg 70%
    20:00 +21°C° 0.8 mm 2 m/s 740 mmHg 78%
    21:00 +21°C° 0.1 mm 1 m/s 740 mmHg 81%
    22:00 +21°C° 0.1 mm 1 m/s 740 mmHg 84%
    23:00 +18°C° 0.1 mm 0 m/s 740 mmHg 87%
    Voir plus